Location: Gorlice
(49.6633°N, 21.1693°E)
Time: 21:13:08
(UTC+01:00)

ISS - Pass Details

Date: 30 January 2019
Orbit: 403 x 411 km, 51.6° (Epoch: 22 February)

Event Time Altitude Azimuth Distance (km) Brightness Sun altitude
Rises 17:24:52 0° 258° (WSW) 2,330 2.4 -9.6°
Reaches altitude 10° 17:26:57 10° 260° (W) 1,472 0.6 -9.9°
Maximum altitude 17:30:15 76° 345° (NNW) 428 -3.8 -10.4°
Enters shadow 17:32:41 17° 71° (ENE) 1,123 -2.3 -10.8°
